Location: Peterborough
(44.3091°N, 78.3197°W)
Time: 01:23:36
(UTC-04:00)

Vanguard 1 Rocket - Pass Details

Date: 29 March 2023
Orbit: 655 x 4220 km, 34.3° (Epoch: 02 June)

Event Time Altitude Azimuth Distance (km) Brightness Sun altitude
Exits shadow 05:09:45 24° 220° (SW) 2,924 9.4 -19.8°
Drops below altitude 10° 05:15:36 10° 171° (S) 3,136 10.0 -18.9°
Sets 05:18:23 0° 157° (SSE) 3,758 10.6 -18.4°
